DW5164 Weather Reports


time (UTC)temp
F
wind
direction
speed
knots
gust
knots
rain 1hr
in
rain 24hr
in
rain mn
in
humidity
%
barometer
mb
20260902122924 87 93 4.3 6.1 0.00 0.00 0.00 58 1016.3
20260902122424 87 107 3.5 7.0 0.00 0.00 0.00 59 1016.3
20260902121924 86 33 3.5 8.7 0.00 0.00 0.00 57 1016.4
20260902120925 87 81 3.5 7.8 0.00 0.00 0.00 58 1016.5
20260902120423 87 16 1.7 2.6 0.00 0.00 0.00 58 1016.5
20260902115423 86 78 2.6 5.2 0.00 0.00 0.00 56 1016.7
20260902114423 85 60 1.7 2.6 0.00 0.00 0.00 57 1016.8
20260902113935 85 108 2.6 4.3 0.00 0.00 0.00 60 1016.9
20260902113427 84 78 2.6 5.2 0.00 0.00 0.00 59 1016.9
20260902112925 85 74 2.6 4.3 0.00 0.00 0.00 60 1016.9
20260902112424 84 101 1.7 6.1 0.00 0.00 0.00 59 1017.0
20260902111927 85 133 1.7 6.1 0.00 0.00 0.00 57 1017.0
20260902111440 85 115 4.3 7.0 0.00 0.00 0.00 57 1017.1
20260902105922 85 105 2.6 6.1 0.00 0.00 0.00 57 1017.3
20260902105422 84 103 2.6 4.3 0.00 0.00 0.00 53 1017.4
20260902104922 84 97 1.7 2.6 0.00 0.00 0.00 54 1017.4
20260902104423 84 153 1.7 5.2 0.00 0.00 0.00 53 1017.5
20260902103923 86 92 2.6 7.8 0.00 0.00 0.00 52 1017.5
20260902103423 85 90 1.7 4.3 0.00 0.00 0.00 54 1017.6
20260902102923 85 331 1.7 2.6 0.00 0.00 0.00 50 1017.6
20260902101924 84 94 2.6 6.1 0.00 0.00 0.00 56 1017.7
20260902100923 83 100 2.6 4.3 0.00 0.00 0.00 58 1017.8
20260902095923 83 90 1.7 4.3 0.00 0.00 0.00 59 1017.9
20260902095423 83 114 2.6 4.3 0.00 0.00 0.00 61 1017.9
20260902094923 83 182 1.7 2.6 0.00 0.00 0.00 60 1018.0
20260902094423 83 131 0.9 6.1 0.00 0.00 0.00 62 1018.0
20260902093923 83 110 1.7 2.6 0.00 0.00 0.00 63 1018.0
20260902092923 81 130 0.9 2.6 0.00 0.00 0.00 65 1018.1
20260902091423 82 141 2.6 4.3 0.00 0.00 0.00 64 1018.0
20260902090422 82 161 0.9 2.6 0.00 0.00 0.00 64 1018.0
20260902085923 82 49 1.7 2.6 0.00 0.00 0.00 65 1018.0
20260902085422 81 127 0.9 2.6 0.00 0.00 0.00 65 1018.1
20260902084922 81 164 2.6 7.0 0.00 0.00 0.00 65 1018.1
20260902084422 81 96 0.9 2.6 0.00 0.00 0.00 68 1018.1
20260902083922 81 98 2.6 2.6 0.00 0.00 0.00 67 1018.1
20260902083422 81 132 1.7 4.3 0.00 0.00 0.00 65 1018.1
20260902082430 80 107 1.7 4.3 0.00 0.00 0.00 66 1018.0
20260902081923 81 136 0.9 4.3 0.00 0.00 0.00 66 1018.1
20260902080922 80 58 0.0 2.6 0.00 0.00 0.00 63 1017.9
20260902080423 80 58 1.7 4.3 0.00 0.00 0.00 64 1017.9
20260902075922 80 59 1.7 5.2 0.00 0.00 0.00 64 1017.9
20260902075424 80 62 1.7 2.6 0.00 0.00 0.00 70 1017.9
20260902074926 79 15 0.9 2.6 0.00 0.00 0.00 71 1017.8
20260902073923 79 0 0.9 2.6 0.00 0.00 0.00 74 1017.8
20260902073422 78 22 0.9 2.6 0.00 0.00 0.00 77 1017.7
20260902072922 77 9 0.9 2.6 0.00 0.00 0.00 79 1017.8
20260902072425 77 325 0.9 2.6 0.00 0.00 0.00 79 1017.9
20260902071922 76 289 1.7 2.6 0.00 0.00 0.00 79 1017.8
20260902071422 76 276 0.9 1.7 0.00 0.00 0.00 80 1017.8
20260902070923 75 301 0.9 1.7 0.00 0.00 0.00 80 1017.7
20260902070422 75 301 0.9 2.6 0.00 0.00 0.00 81 1017.7
20260902065922 74 288 0.0 1.7 0.00 0.00 0.00 82 1017.7
20260902065438 74 288 0.9 2.6 0.00 0.00 0.00 82 1017.7
20260902064422 73 300 1.7 2.6 0.00 0.00 0.00 83 1017.6
20260902063923 73 292 0.9 2.6 0.00 0.00 0.00 82 1017.6
20260902063437 72 263 0.9 2.6 0.00 0.00 0.00 83 1017.6
20260902062924 72 273 1.7 2.6 0.00 0.00 0.00 83 1017.6
20260902061424 70 263 0.0 1.7 0.00 0.00 0.00 86 1017.5
20260902060924 70 263 0.9 2.6 0.00 0.00 0.00 86 1017.5
20260902055922 69 262 0.9 2.6 0.00 0.00 0.00 87 1017.4
20260902055422 69 264 1.7 2.6 0.00 0.00 0.00 88 1017.4
20260902054922 68 343 0.0 2.6 0.00 0.00 0.00 88 1017.4
20260902054422 68 343 0.9 1.7 0.00 0.00 0.00 89 1017.4
20260902053923 68 343 0.9 1.7 0.00 0.00 0.00 89 1017.3
20260902053422 68 343 0.0 0.0 0.00 0.00 0.00 90 1017.2
20260902052422 67 343 0.0 0.0 0.00 0.00 0.00 90 1017.1
20260902051922 67 343 0.0 0.0 0.00 0.00 0.00 91 1017.1
20260902051422 66 344 0.0 0.0 0.00 0.00 0.00 91 1017.1
20260902050922 66 258 0.0 0.0 0.00 0.00 0.00 91 1017.1
20260902050422 66 258 0.0 0.0 0.00 0.00 0.00 91 1017.0
20260902045925 66 246 0.0 0.0 0.00 0.00 0.00 91 1016.9
20260902045422 66 213 0.0 0.0 0.00 0.00 0.00 91 1016.9
20260902044922 67 213 0.0 0.0 0.00 0.00 0.00 90 1016.8
20260902043922 67 213 0.0 0.0 0.00 0.00 0.00 90 1016.9
20260902043422 67 213 0.0 0.0 0.00 0.00 0.00 90 1016.9
20260902042922 66 213 0.0 0.0 0.00 0.00 0.00 90 1016.9
20260902042425 66 213 0.0 0.0 0.00 0.00 0.00 90 1016.9
20260902041922 67 213 0.0 0.0 0.00 0.00 0.00 90 1016.9
20260902041421 66 213 0.0 0.0 0.00 0.00 0.00 90 1016.8
20260902040922 66 213 0.0 0.0 0.00 0.00 0.00 89 1016.9
20260902040422 67 213 0.0 0.0 0.00 0.00 0.00 89 1016.9
20260902035923 67 213 0.0 0.0 0.00 0.00 0.00 89 1016.9
20260902035422 67 213 0.0 0.0 0.00 0.00 0.00 89 1016.8
20260902034923 67 213 0.0 0.0 0.00 0.00 0.00 89 1016.8
20260902034421 67 213 0.0 0.0 0.00 0.00 0.00 89 1016.7
20260902033921 67 213 0.0 0.0 0.00 0.00 0.00 89 1016.8
20260902033422 67 213 0.0 0.0 0.00 0.00 0.00 89 1016.8
20260902032924 67 57 0.0 0.0 0.00 0.00 0.00 88 1016.8
20260902032422 68 57 0.0 0.0 0.00 0.00 0.00 88 1016.7
20260902031922 68 57 0.0 0.0 0.00 0.00 0.00 87 1016.8
20260902031422 68 57 0.0 1.7 0.00 0.00 0.00 88 1016.8
20260902030937 68 57 0.9 1.7 0.00 0.00 0.00 88 1016.8
20260902030423 68 57 0.0 0.0 0.00 0.00 0.00 88 1016.7
20260902025929 68 57 0.0 0.9 0.00 0.00 0.00 87 1016.7
20260902025421 68 57 0.0 0.0 0.00 0.00 0.00 87 1016.7
20260902024921 68 57 0.0 0.0 0.00 0.00 0.00 87 1016.7
20260902024422 68 57 0.0 0.0 0.00 0.00 0.00 87 1016.7
20260902023921 69 57 0.0 1.7 0.00 0.00 0.00 87 1016.7
20260902023422 69 57 0.0 0.0 0.00 0.00 0.00 86 1016.7
20260902022925 69 57 0.0 1.7 0.00 0.00 0.00 86 1016.7
20260902022421 69 57 0.0 1.7 0.00 0.00 0.00 86 1016.7
20260902021922 69 57 0.0 0.9 0.00 0.00 0.00 86 1016.7
20260902020922 69 57 0.0 1.7 0.00 0.00 0.00 86 1016.8
20260902020423 68 57 0.9 1.7 0.00 0.00 0.00 86 1016.7
20260902015922 68 57 0.9 1.7 0.00 0.00 0.00 86 1016.7
20260902015421 69 57 0.9 1.7 0.00 0.00 0.00 86 1016.7
20260902014923 69 57 0.0 1.7 0.00 0.00 0.00 86 1016.7
20260902013922 69 57 0.0 0.0 0.00 0.00 0.00 85 1016.7
20260902012921 69 57 0.0 0.0 0.00 0.00 0.00 85 1016.7
20260902012422 69 57 0.9 1.7 0.00 0.00 0.00 85 1016.7
20260902011922 69 57 0.0 1.7 0.00 0.00 0.00 85 1016.7
20260902011422 69 57 0.0 0.0 0.00 0.00 0.00 84 1016.6
20260902010922 70 57 0.0 0.0 0.00 0.00 0.00 83 1016.7
20260902005921 70 57 1.7 2.6 0.00 0.00 0.00 83 1016.6
20260902005428 70 57 0.9 1.7 0.00 0.00 0.00 83 1016.6
20260902004921 70 57 0.9 1.7 0.00 0.00 0.00 83 1016.6
20260902004422 70 57 0.0 0.0 0.00 0.00 0.00 83 1016.6
20260902003424 70 57 0.9 1.7 0.00 0.00 0.00 82 1016.6
20260902002923 70 57 1.7 2.6 0.00 0.00 0.00 82 1016.6
20260902002421 71 57 0.9 2.6 0.00 0.00 0.00 81 1016.5
20260902001922 71 57 0.0 0.9 0.00 0.00 0.00 81 1016.5
20260902000921 71 57 0.9 2.6 0.00 0.00 0.00 81 1016.6
20260902000421 71 57 0.9 1.7 0.00 0.00 0.00 80 1016.7
20260901235420 70 57 2.6 2.6 0.00 0.00 0.00 81 1016.7
20260901234439 71 57 0.0 1.7 0.00 0.00 0.00 80 1016.6
20260901233421 71 59 1.7 2.6 0.00 0.00 0.00 82 1016.6
20260901231921 71 92 0.9 2.6 0.00 0.00 0.00 81 1016.6
20260901231422 71 92 1.7 4.3 0.00 0.00 0.00 81 1016.6
20260901230921 71 92 1.7 2.6 0.00 0.00 0.00 81 1016.5
20260901225420 71 88 1.7 4.3 0.00 0.00 0.00 82 1016.5
20260901224920 71 88 1.7 4.3 0.00 0.00 0.00 82 1016.5
20260901224421 71 80 1.7 4.3 0.00 0.00 0.00 82 1016.5
20260901223921 71 80 1.7 2.6 0.00 0.00 0.00 81 1016.5
20260901223422 72 67 1.7 2.6 0.00 0.00 0.00 80 1016.5
20260901222922 72 62 1.7 2.6 0.00 0.00 0.00 81 1016.6
20260901222422 72 40 1.7 2.6 0.00 0.00 0.00 80 1016.5
20260901221921 72 40 1.7 2.6 0.00 0.00 0.00 80 1016.5
20260901221421 72 38 1.7 2.6 0.00 0.00 0.00 79 1016.5
20260901220921 72 58 2.6 2.6 0.00 0.00 0.00 79 1016.5
20260901220422 72 43 2.6 4.3 0.00 0.00 0.00 79 1016.4
20260901215921 73 44 1.7 2.6 0.00 0.00 0.00 78 1016.4
20260901215436 73 44 2.6 4.3 0.00 0.00 0.00 79 1016.5
20260901214920 73 30 0.9 2.6 0.00 0.00 0.00 79 1016.5
20260901213421 73 71 0.9 2.6 0.00 0.00 0.00 78 1016.4
20260901212925 73 71 0.9 1.7 0.00 0.00 0.00 77 1016.4
20260901212424 73 71 1.7 2.6 0.00 0.00 0.00 78 1016.4
20260901211921 74 96 0.0 0.0 0.00 0.00 0.00 78 1016.4
20260901210922 74 96 0.9 1.7 0.00 0.00 0.00 77 1016.4
20260901210437 74 96 0.0 1.7 0.00 0.00 0.00 77 1016.4
20260901205423 74 96 0.9 1.7 0.00 0.00 0.00 76 1016.4
20260901204920 74 95 0.9 2.6 0.00 0.00 0.00 77 1016.4
20260901204422 74 86 0.9 2.6 0.00 0.00 0.00 77 1016.4
20260901203422 75 122 0.9 1.7 0.00 0.00 0.00 76 1016.4
20260901202921 75 122 1.7 2.6 0.00 0.00 0.00 75 1016.3
20260901202421 75 94 1.7 2.6 0.00 0.00 0.00 75 1016.3
20260901201920 75 84 0.9 1.7 0.00 0.00 0.00 76 1016.2
20260901201421 75 84 0.9 2.6 0.00 0.00 0.00 76 1016.3
20260901200420 76 84 1.7 2.6 0.00 0.00 0.00 75 1016.2
20260901195921 76 98 0.9 2.6 0.00 0.00 0.00 75 1016.2
20260901195420 76 107 0.9 1.7 0.00 0.00 0.00 74 1016.2
20260901194920 76 107 0.9 2.6 0.00 0.00 0.00 73 1016.2
20260901194420 77 107 1.7 2.6 0.00 0.00 0.00 72 1016.1
20260901193920 77 93 1.7 4.3 0.00 0.00 0.00 71 1016.1
20260901193420 77 96 2.6 5.2 0.00 0.00 0.00 71 1016.0
20260901192921 77 78 1.7 4.3 0.00 0.00 0.00 71 1016.0
20260901192420 77 85 1.7 2.6 0.00 0.00 0.00 71 1016.0
20260901191920 77 72 2.6 4.3 0.00 0.00 0.00 71 1016.0
20260901190921 78 90 2.6 4.3 0.00 0.00 0.00 70 1015.9
20260901190420 78 95 2.6 6.1 0.00 0.00 0.00 70 1015.8
20260901185920 78 85 3.5 6.1 0.00 0.00 0.00 70 1015.8
20260901184920 78 89 2.6 5.2 0.00 0.00 0.00 69 1015.7
20260901184420 78 88 1.7 4.3 0.00 0.00 0.00 69 1015.6
20260901183921 79 69 2.6 4.3 0.00 0.00 0.00 67 1015.6
20260901183422 79 70 2.6 2.6 0.00 0.00 0.00 67 1015.6
20260901182920 79 71 2.6 6.1 0.00 0.00 0.00 67 1015.6
20260901181920 79 63 4.3 6.1 0.00 0.00 0.00 66 1015.4
20260901181419 79 68 3.5 6.1 0.00 0.00 0.00 66 1015.3
20260901180920 80 66 2.6 6.1 0.00 0.00 0.00 66 1015.2
20260901180420 80 68 3.5 6.1 0.00 0.00 0.00 65 1015.2
20260901175420 80 69 3.5 6.1 0.00 0.00 0.00 65 1015.1
20260901174421 81 59 4.3 5.2 0.00 0.00 0.00 65 1015.1
20260901173919 81 71 2.6 5.2 0.00 0.00 0.00 65 1015.2
20260901173420 81 84 4.3 7.0 0.00 0.00 0.00 65 1015.1
20260901172920 82 79 3.5 7.0 0.00 0.00 0.00 64 1015.0
20260901172421 82 78 2.6 6.1 0.00 0.00 0.00 64 1015.1
20260901171920 82 68 2.6 5.2 0.00 0.00 0.00 64 1015.0
20260901171422 82 79 3.5 6.1 0.00 0.00 0.00 64 1014.9
20260901170924 83 79 2.6 7.8 0.00 0.00 0.00 64 1014.9
20260901170422 83 94 3.5 6.1 0.00 0.00 0.00 64 1014.8
20260901165435 84 82 6.1 8.7 0.00 0.00 0.00 63 1014.9
20260901164920 84 95 5.2 7.8 0.00 0.00 0.00 64 1014.9
20260901163419 84 85 3.5 7.8 0.00 0.00 0.00 65 1014.9
20260901162919 85 86 4.3 7.8 0.00 0.00 0.00 64 1015.0
20260901162419 85 75 5.2 10.4 0.00 0.00 0.00 64 1015.0
20260901161919 85 105 7.0 10.4 0.00 0.00 0.00 63 1015.0
20260901161419 85 94 5.2 10.4 0.00 0.00 0.00 63 1014.9
20260901160419 85 96 6.1 10.4 0.00 0.00 0.00 63 1014.9
20260901155923 86 80 5.2 10.4 0.00 0.00 0.00 63 1014.9
20260901155419 85 82 7.8 11.3 0.00 0.00 0.00 63 1015.0
20260901154919 86 86 6.1 11.3 0.00 0.00 0.00 62 1015.0
20260901154420 86 82 5.2 10.4 0.00 0.00 0.00 63 1015.0
20260901153919 86 94 2.6 10.4 0.00 0.00 0.00 62 1015.1
20260901153420 86 73 5.2 8.7 0.00 0.00 0.00 61 1015.0
20260901152922 86 95 6.1 8.7 0.00 0.00 0.00 63 1015.1
20260901152419 86 84 6.1 10.4 0.00 0.00 0.00 62 1015.1
20260901150920 87 110 6.1 10.4 0.00 0.00 0.00 61 1015.1
20260901150419 87 111 5.2 13.0 0.00 0.00 0.00 63 1015.1
20260901145920 87 124 6.1 10.4 0.00 0.00 0.00 62 1015.0
20260901145420 87 106 6.1 11.3 0.00 0.00 0.00 63 1015.0
20260901144921 87 98 7.8 13.0 0.00 0.00 0.00 62 1015.0
20260901144420 87 76 7.0 13.0 0.00 0.00 0.00 63 1015.1
20260901143919 87 72 5.2 10.4 0.00 0.00 0.00 61 1015.1
20260901143420 87 78 8.7 13.0 0.00 0.00 0.00 62 1015.2
20260901142420 86 106 6.1 10.4 0.00 0.00 0.00 63 1015.2
20260901141919 86 91 7.8 11.3 0.00 0.00 0.00 64 1015.2
20260901141419 86 99 7.0 14.8 0.00 0.00 0.00 63 1015.3
20260901140920 86 86 7.8 13.9 0.00 0.00 0.00 63 1015.3
20260901140419 86 76 7.0 13.0 0.00 0.00 0.00 65 1015.3
20260901135919 86 71 4.3 7.8 0.00 0.00 0.00 64 1015.3
20260901134919 87 90 9.6 13.9 0.00 0.00 0.00 61 1015.4
20260901134419 88 83 7.8 12.2 0.00 0.00 0.00 61 1015.4
20260901133920 88 111 6.1 11.3 0.00 0.00 0.00 63 1015.4
20260901133419 87 95 5.2 7.8 0.00 0.00 0.00 63 1015.5
20260901132919 87 83 7.8 11.3 0.00 0.00 0.00 61 1015.6
20260901132420 87 107 6.1 10.4 0.00 0.00 0.00 61 1015.6
20260901131919 87 102 5.2 11.3 0.00 0.00 0.00 63 1015.7
20260901131420 86 57 6.1 10.4 0.00 0.00 0.00 62 1015.7
20260901130919 86 102 6.1 11.3 0.00 0.00 0.00 64 1015.8
20260901130418 87 104 6.1 12.2 0.00 0.00 0.00 63 1015.8
20260901125419 87 102 6.1 10.4 0.00 0.00 0.00 63 1015.9
20260901124919 87 96 7.8 12.2 0.00 0.00 0.00 61 1016.0
20260901124434 87 93 6.1 11.3 0.00 0.00 0.00 62 1016.0
20260901123920 87 109 5.2 12.2 0.00 0.00 0.00 61 1016.0